SCP
2 2 2 1 1 1 1 1 1 2 2 2 1 1 1 1 1 1 1 1 1 1 1 1 1 1 1 2 2 2 1 1 1 1 1 1 1 1 1 1 1 1 0
2 2 2 2 1 1 1 1 2 2 2 2 2 2 1 1 1 1 1 1 1 1 1 1 1 1 2 2 3 2 2 2 2 1 1 1 1 1 1 1 1 1 1
2 2 2 2 2 2 2 2 2 2 2 2 2 2 2 2 1 1 1 1 1 1 1 1 1 1 2 3 3 3 2 2 2 2 1 1 1 1 1 1 1 1 1
2 2 2 2 2 2 2 2 3 3 2 2 2 2 2 2 2 1 1 1 1 1 1 1 1 2 2 3 3 3 2 2 2 2 2 1 1 1 1 1 1 1 1
2 2 2 2 3 3 4 3 3 3 3 3 3 2 2 2 2 2 2 2 2 1 1 1 1 2 2 3 3 3 3 2 2 2 2 2 1 1 1 1 1 1 1
2 3 3 3 3 3 4 4 3 3 4 4 3 3 3 3 2 2 2 2 2 2 1 1 1 2 2 2 3 3 3 3 2 2 2 2 2 1 1 1 1 1 1
2 3 3 3 3 3 4 4 3 3 4 4 4 3 3 3 2 2 2 2 2 2 1 1 1 1 2 2 2 2 3 3 2 2 2 2 2 2 1 1 1 1 1
2 3 3 3 3 3 4 4 3 3 3 3 3 3 3 2 2 2 2 2 2 2 2 1 1 1 2 2 2 2 2 2 2 2 2 2 2 2 1 1 1 1 1
3 3 3 3 3 3 4 4 3 3 3 3 3 3 3 2 2 2 2 1 1 1 1 1 1 1 2 2 2 1 1 2 2 2 2 2 2 1 1 1 1 1 1
2 2 2 2 3 3 3 3 3 3 2 2 3 3 3 2 2 1 1 1 1 1 1 1 1 1 1 2 1 1 1 1 1 2 2 2 1 1 1 1 1 1 1
2 2 2 2 2 2 3 3 2 2 2 2 2 3 3 2 2 1 1 1 1 0 0 0 1 1 1 1 1 1 1 1 1 1 1 1 1 1 1 1 1 1 1
1 1 1 1 2 2 2 2 2 2 2 2 2 2 2 2 2 1 1 1 0 0 0 0 1 1 1 1 1 0 0 0 0 0 1 1 1 1 1 1 1 1 1
1 1 1 1 1 1 1 1 2 2 2 2 1 2 2 2 2 2 1 1 0 0 0 0 0 0 0 0 0 0 0 0 0 0 0 1 1 1 1 1 1 1 1
1 1 1 1 1 1 1 1 2 2 2 1 1 1 1 1 2 1 1 1 0 0 0 0 0 0 0 0 0 0 0 0 0 0 0 0 0 0 0 0 0 1 1
0 0 1 1 1 1 1 1 2 2 2 1 1 1 1 1 1 1 1 1 0 0 0 0 0 0 0 0 0 0 0 0 0 0 0 0 0 0 0 0 0 0 0
0 0 1 1 1 1 1 1 1 2 2 1 1 1 1 1 1 1 0 0 0 0 0 0 0 0 0 0 0 0 0 0 0 0 0 0 0 0 0 0 0 0 0
0 0 0 0 1 1 1 1 1 1 1 1 1 1 1 1 0 0 0 0 0 0 0 0 0 0 0 0 0 0 0 0 0 0 0 0 0 0 0 0 0 0 0
0 0 0 0 0 0 1 1 1 1 1 1 1 1 0 0 0 0 0 0 0 0 0 0 0 0 0 0 0 0 0 0 0 0 0 0 0 0 0 0 0 0 0
0 0 0 0 0 0 0 1 0 0 0 0 0 0 0 0 0 0 0 0 0 0 0 0 0 0 0 0 0 0 0 0 0 0 0 0 0 0 0 0 0 0 0
0 0 0 0 0 0 0 0 0 0 0 0 0 0 0 0 0 0 0 0 0 0 0 0 0 0 0 0 0 0 0 0 0 0 0 0 0 0 0 0 0 0 0
0 0 0 0 0 0 0 0 0 0 0 0 0 0 0 0 0 0 0 0 0 0 0 0 0 0 0 0 0 0 0 0 0 0 0 0 0 0 0 0 0 0 0
0 0 0 0 0 0 0 0 0 0 0 0 0 0 0 0 0 0 0 0 0 0 0 0 0 0 0 0 0 0 0 0 0 0 0 0 0 0 0 0 0 0 0
0 0 0 0 0 0 0 0 0 0 0 0 0 0 0 0 0 0 0 0 0 0 0 0 0 0 0 0 0 0 0 0 0 0 0 0 0 0 0 0 0 0 0
0 0 0 0 0 0 0 0 0 0 0 0 0 0 0 0 0 0 0 0 0 0 0 0 0 0 0 0 0 0 0 0 0 0 0 0 0 0 0 0 0 0 0
0 0 0 0 0 0 0 0 0 0 0 0 0 0 0 0 0 0 0 0 0 0 0 0 0 0 0 0 0 0 0 0 0 0 0 0 0 0 0 0 0 0 0
0 0 0 0 0 0 0 0 0 0 0 0 0 0 0 0 0 0 0 0 0 0 0 0 0 0 0 0 0 0 0 0 0 0 0 0 0 0 0 0 0 0 0
Wind_Speed
6 6 6 5 6 5 6 6 6 8 8 8 8 9 10 9 9 8 6 13 14 15 16 16 15 15 15 15 15 15 16 17 17 17 18 18 18 19 19 19 18 18 18
7 6 7 6 7 6 6 6 7 7 6 6 8 9 9 8 8 8 7 8 12 14 14 16 16 16 15 15 15 15 16 16 16 17 17 18 18 18 19 19 19 18 18
8 8 7 7 7 6 6 5 6 5 5 6 8 8 7 7 8 8 7 6 6 10 13 14 14 15 15 15 15 15 15 16 16 16 17 18 18 18 18 19 19 19 18
10 8 7 8 7 5 4 4 4 4 5 5 6 6 5 5 8 8 7 6 6 6 9 13 13 14 14 15 15 15 15 15 16 16 17 18 18 18 18 18 18 18 18
10 8 8 8 7 5 5 5 4 4 5 6 6 6 5 6 6 7 7 8 7 6 6 8 12 12 13 13 13 13 14 15 15 16 17 17 18 18 18 18 18 18 18
8 7 7 8 7 5 5 5 6 5 5 5 6 6 5 6 6 6 8 7 6 6 6 6 5 6 9 9 9 11 12 13 14 14 16 16 18 18 18 18 18 18 18
7 6 6 6 6 6 7 7 6 6 6 3 3 4 4 6 7 6 6 5 6 5 4 4 4 4 3 5 6 6 7 9 11 13 14 15 16 17 18 18 18 17 17
6 6 6 5 5 5 6 7 6 4 4 5 4 2 3 3 3 4 3 4 4 3 3 3 3 3 2 2 3 4 4 5 7 9 11 12 14 16 17 18 18 18 17
5 5 5 5 5 5 6 7 7 8 7 6 6 5 4 5 2 2 3 3 2 2 2 2 2 2 2 1 2 3 4 5 5 5 6 8 10 13 15 17 18 18 17
5 5 5 5 5 5 6 7 7 7 7 5 5 6 5 3 3 2 2 2 2 1 2 1 2 2 2 2 2 4 4 4 4 4 3 2 5 9 12 15 17 17 17
5 6 6 5 5 5 6 6 6 7 6 7 5 4 6 5 5 4 3 2 1 1 1 1 1 2 2 3 3 5 5 5 5 5 5 4 2 2 6 10 13 15 16
4 5 6 5 5 5 6 6 7 8 7 8 6 5 5 4 5 6 6 3 2 1 1 2 2 3 3 3 5 7 7 7 7 7 7 7 7 5 3 3 5 8 10
4 6 6 6 5 6 6 6 7 7 8 8 8 6 6 5 4 4 4 3 2 1 0 1 2 3 3 3 4 7 8 8 8 8 9 9 9 9 9 7 5 3 3
5 7 7 7 7 7 6 6 6 7 6 8 9 8 6 6 5 5 4 4 3 1 1 1 1 3 3 3 4 6 5 8 8 8 9 10 10 10 10 10 9 8 5
5 7 7 7 7 6 6 6 5 6 6 6 7 7 6 5 5 5 4 4 5 4 2 1 1 2 3 3 5 4 5 8 9 9 9 9 9 9 10 10 9 9 8
5 7 7 6 7 6 6 5 5 5 6 5 5 5 5 3 4 4 4 4 3 4 3 2 1 2 3 4 6 6 7 9 10 10 9 9 9 8 8 8 8 8 7
5 6 6 6 6 6 5 5 5 5 5 4 4 4 4 4 3 3 4 4 3 4 5 3 2 2 4 5 5 5 5 6 6 9 8 8 8 8 8 8 7 7 7
5 5 4 5 5 5 4 4 3 3 3 4 4 5 5 4 5 4 4 5 5 5 7 6 2 3 4 4 4 5 5 5 5 8 8 8 8 8 7 7 7 6 6
4 4 3 4 4 4 3 3 2 1 1 3 4 5 6 8 7 6 7 7 6 7 6 7 4 3 3 3 4 4 5 4 5 6 7 7 7 7 7 7 6 6 6
4 3 3 3 3 2 2 2 2 4 5 5 5 6 6 7 8 9 8 9 9 9 7 7 5 3 3 3 3 3 4 4 4 5 5 5 6 6 7 6 6 6 5
4 3 2 2 2 1 1 3 3 5 6 6 7 7 7 9 9 8 9 9 9 8 7 7 6 4 4 3 3 2 2 2 3 4 3 4 4 4 4 5 6 7 6
4 3 2 1 0 1 4 5 5 6 6 7 7 7 8 9 13 14 14 11 10 9 8 6 5 5 3 2 1 2 2 2 3 4 4 3 3 3 4 4 7 8 8
5 4 3 2 2 3 6 6 8 6 5 6 6 6 7 8 10 11 13 14 12 11 9 7 7 4 2 1 2 3 2 3 2 4 3 3 4 3 3 4 8 9 8
6 5 5 4 4 5 7 8 9 7 6 5 5 7 8 7 8 10 11 10 9 8 6 5 6 3 2 1 1 2 1 2 2 3 4 3 4 3 4 4 7 11 11
7 6 5 6 6 6 9 9 9 6 6 6 5 5 8 8 11 13 11 10 9 7 8 10 9 8 7 6 3 3 3 3 3 3 4 3 3 3 3 3 6 10 12
8 7 7 7 8 8 10 11 10 6 6 5 4 5 7 9 11 11 10 10 9 6 6 8 8 8 8 9 9 5 3 3 2 3 4 4 3 4 4 3 4 6 8
Wind_Direction
237 238 241 240 241 239 239 244 246 248 250 251 251 251 253 253 253 251 257 264 267 267 268 268 265 263 258 251 244 237 234 230 224 219 218 219 220 219 218 216 215 213 212
236 237 241 241 242 238 239 240 244 247 250 252 255 252 252 255 256 253 252 261 267 268 268 268 267 264 259 252 244 238 235 233 227 221 218 218 220 219 218 217 215 214 213
235 237 241 242 241 236 237 241 248 250 255 256 258 257 253 249 251 253 255 254 260 264 264 265 264 262 260 255 248 241 237 234 230 224 219 217 218 219 218 217 216 214 212
234 235 239 243 240 230 227 231 239 247 251 253 256 258 254 249 251 252 253 254 254 260 264 266 265 262 259 257 253 246 240 235 231 227 221 218 217 217 217 216 216 213 211
242 235 239 241 232 225 222 227 225 224 241 248 254 254 249 251 256 261 259 256 253 255 259 266 267 265 262 259 256 252 244 237 233 230 226 220 217 216 215 215 214 212 210
253 245 242 242 231 227 222 215 223 223 231 238 255 260 251 249 250 253 256 257 255 258 263 266 267 267 264 263 260 257 252 244 237 234 230 223 219 215 212 212 213 211 209
255 248 249 246 233 229 229 220 219 228 233 216 234 265 267 251 250 250 250 253 255 257 260 264 261 260 267 270 269 268 264 258 246 238 233 226 220 214 210 210 210 209 208
265 259 250 246 236 231 236 230 217 221 226 200 204 229 283 296 263 248 242 238 243 248 259 270 273 276 282 287 304 312 307 295 277 252 237 228 220 213 209 208 207 206 206
282 274 267 258 248 236 236 232 222 223 233 217 200 194 208 237 279 279 246 242 246 253 266 284 300 307 312 330 341 358 2 357 327 291 254 230 219 213 209 207 207 206 205
297 291 283 271 259 249 243 240 229 224 224 226 214 214 217 192 198 260 276 265 265 274 291 300 330 341 359 11 26 28 18 20 7 0 348 280 228 215 210 208 208 206 204
300 297 291 282 270 261 254 246 236 225 222 223 215 204 216 219 211 214 244 254 284 319 334 351 14 17 26 34 35 40 32 34 33 32 29 25 22 211 208 207 209 209 208
298 296 294 284 276 269 260 251 243 232 227 225 220 210 198 196 200 203 217 217 212 250 352 28 32 31 34 35 44 49 48 47 48 47 47 49 53 61 88 153 188 203 207
298 299 298 287 280 271 265 259 252 242 232 227 222 219 213 212 190 187 194 187 182 181 52 40 22 26 37 35 37 47 54 54 57 57 58 59 61 63 66 69 81 106 145
289 295 297 290 283 279 274 262 256 247 236 231 227 219 216 213 202 193 181 163 157 148 105 64 17 22 23 34 37 48 57 59 64 63 64 65 65 65 66 65 65 63 65
292 298 301 299 297 290 280 268 255 248 236 230 226 219 215 208 199 194 180 165 159 160 159 97 55 15 19 48 41 59 65 63 65 66 68 69 70 68 67 66 64 60 56
292 299 302 302 301 296 287 273 260 249 236 227 217 209 204 194 189 184 181 170 159 146 133 111 66 24 29 61 58 68 70 65 63 65 68 71 72 72 70 67 63 57 51
291 297 301 306 307 304 296 281 263 245 229 216 199 189 184 169 166 160 154 151 144 130 123 105 52 33 48 62 61 63 65 63 60 58 64 68 69 67 64 62 59 53 46
287 292 299 309 315 319 320 308 285 246 215 194 177 163 154 143 130 127 128 125 121 118 125 122 76 44 48 48 57 61 54 57 56 51 54 60 62 60 59 58 54 48 39
283 295 300 308 319 327 340 343 341 70 125 135 137 137 133 129 119 114 111 109 107 103 103 114 98 60 56 46 53 54 50 39 45 43 45 48 48 52 55 52 47 40 30
269 283 293 304 312 328 3 22 52 81 82 84 92 102 111 117 119 116 111 111 110 105 102 103 95 75 60 41 57 55 50 35 31 23 25 29 32 41 42 37 33 27 17
249 260 275 301 311 354 73 85 85 92 88 86 84 85 91 106 111 114 120 120 116 111 108 103 96 82 60 51 49 29 59 41 42 21 6 19 17 26 27 19 14 5 357
231 234 241 249 252 124 114 105 100 95 94 97 93 86 92 96 99 98 103 107 117 121 118 109 102 97 83 66 50 53 54 51 38 7 1 5 10 16 19 19 4 358 353
211 213 214 192 166 151 139 123 111 107 102 100 101 102 102 100 101 103 95 90 88 96 109 120 116 117 117 122 101 81 70 72 60 355 349 2 358 355 359 6 0 358 352
203 202 199 183 164 161 151 135 121 109 99 91 95 107 112 108 110 111 106 96 88 81 90 97 111 113 113 135 128 106 112 100 69 33 12 9 345 337 334 349 1 1 356
202 194 186 177 169 165 161 146 130 114 104 91 88 103 118 118 123 119 112 107 97 86 85 88 88 83 79 79 93 98 81 77 54 20 14 4 341 328 325 335 352 359 356
205 189 184 180 173 167 165 153 137 128 120 112 94 93 114 127 134 129 125 123 117 112 108 92 73 63 64 62 58 65 82 83 66 27 6 357 353 352 344 335 338 353 356